Weather History for West Palm Beach, FL

Change the Weather History Date:

Friday, November 8, 2013

  Actual Average Record
Temperature  
Mean Temperature 79 °F 74 °F  
Max Temperature 87 °F 81 °F 90 °F (1958)
Min Temperature 71 °F 67 °F 44 °F (1923)
Degree Days  
Heating Degree Days 0 0  
Month to date heating degree days 0 0  
Since 1 July heating degree days 0 1  
Cooling Degree Days 14 9  
Month to date cooling degree days 116 77  
Year to date cooling degree days 3964 3698  
Growing Degree Days 29 (Base 50)    
Moisture  
Dew Point 69 °F    
Average Humidity 71    
Maximum Humidity 90    
Minimum Humidity 51    
Precipitation  
Precipitation 0.52 in 0.17 in 4.15 in (1982)
Month to date precipitation 0.52 1.38  
Year to date precipitation 58.38 55.58  
Snow  
Snow 0.00 in - - ()
Month to date snowfall 0.0  
Since 1 July snowfall 0.0  
Since 1 September snowfall 0.0  
Snow Depth 0.00 in    
Sea Level Pressure  
Sea Level Pressure 30.00 in    
Wind  
Wind Speed 12 mph (NNE)    
Max Wind Speed 28 mph    
Max Gust Speed 39 mph    
Visibility 8 miles    
Events Rain    
T = Trace of Precipitation, MM = Missing Value Source: NWS Daily Summary

Daily Weather History Graph

Daily Weather History Graph

Search for Another Location

Airport:

Trip Planner

Search our weather history database for the weather conditions in past years. The results will help you decide how hot, cold, wet, or windy it might be!

Date:

Astronomy

Nov. 08, 2013 Rise Set
Actual Time 6:34 AM EST 5:33 PM EST
Civil Twilight 6:10 AM EST 5:57 PM EST
Nautical Twilight 5:42 AM EST 6:25 PM EST
Astronomical Twilight 5:15 AM EST 6:52 PM EST
Moon 11:29 AM EST (11/8) 10:50 PM EST (11/8)
Length of Visible Light 11h 46m
Length of Day
10h 58m
Waxing Crescent, 33% of the Moon is Illuminated
Nov 8
Waxing Crescent
Nov 10
First Quarter
Nov 17
Full
Nov 25
Last Quarter
Dec 2
New

Hourly Weather History & Observations

Time (EST) Temp. Heat Index Dew Point Humidity Pressure Visibility Wind Dir Wind Speed Gust Speed Precip Events Conditions
12:53 AM 72.0 °F - 66.0 °F 81% 29.95 in 10.0 mi NNW 5.8 mph - N/A   Scattered Clouds
1:53 AM 72.0 °F - 66.9 °F 84% 29.95 in 10.0 mi NNW 8.1 mph - N/A   Partly Cloudy
2:53 AM 71.1 °F - 66.0 °F 84% 29.95 in 10.0 mi NNW 6.9 mph - N/A   Partly Cloudy
3:53 AM 71.1 °F - 66.9 °F 87% 29.94 in 10.0 mi NNW 6.9 mph - N/A   Partly Cloudy
4:53 AM 72.0 °F - 68.0 °F 87% 29.95 in 10.0 mi NNW 9.2 mph - N/A   Scattered Clouds
5:53 AM 71.1 °F - 66.9 °F 87% 29.97 in 10.0 mi NNW 5.8 mph - N/A   Scattered Clouds
6:53 AM 73.0 °F - 68.0 °F 84% 29.99 in 10.0 mi North 6.9 mph - N/A   Mostly Cloudy
7:53 AM 73.9 °F - 68.0 °F 82% 30.01 in 10.0 mi NNW 8.1 mph - N/A   Mostly Cloudy
8:53 AM 80.1 °F 82.7 °F 68.0 °F 67% 30.01 in 10.0 mi North 9.2 mph - N/A   Mostly Cloudy
9:53 AM 84.0 °F 87.0 °F 68.0 °F 58% 30.02 in 10.0 mi North 15.0 mph 21.9 mph N/A   Mostly Cloudy
10:53 AM 84.0 °F 85.8 °F 64.9 °F 53% 30.02 in 10.0 mi NE 12.7 mph 23.0 mph N/A   Mostly Cloudy
11:53 AM 84.0 °F 88.4 °F 70.0 °F 63% 30.00 in 10.0 mi North 12.7 mph - N/A   Mostly Cloudy
12:46 PM 82.4 °F 86.3 °F 69.8 °F 66% 29.99 in 10.0 mi NNE 11.5 mph - N/A   Overcast
12:53 PM 82.0 °F 85.9 °F 70.0 °F 67% 29.99 in 10.0 mi North 16.1 mph - N/A   Overcast
1:53 PM 79.0 °F - 70.0 °F 74% 29.98 in 10.0 mi North 13.8 mph - 0.00 in Rain Light Rain
2:07 PM 78.8 °F - 69.8 °F 74% 29.98 in 10.0 mi North 11.5 mph - 0.00 in   Mostly Cloudy
2:53 PM 79.0 °F - 71.1 °F 77% 29.97 in 10.0 mi NW 10.4 mph - 0.00 in   Mostly Cloudy
3:53 PM 78.1 °F - 71.1 °F 79% 29.99 in 10.0 mi NNE 12.7 mph 21.9 mph 0.00 in Rain Light Rain
4:53 PM 78.1 °F - 68.0 °F 71% 29.99 in 10.0 mi NNE 11.5 mph - 0.00 in Rain Light Rain
5:09 PM 75.2 °F - 71.6 °F 89% 30.00 in 2.0 mi NNE 13.8 mph - 0.00 in Rain Heavy Rain
5:34 PM 75.2 °F - 71.6 °F 89% 30.00 in 4.0 mi NE 13.8 mph 24.2 mph 0.12 in Rain Light Rain
5:53 PM 77.0 °F - 73.0 °F 88% 30.00 in 4.0 mi ENE 16.1 mph 23.0 mph 0.18 in Rain Light Rain
6:01 PM 75.2 °F - 71.6 °F 89% 29.99 in 4.0 mi NE 16.1 mph 23.0 mph 0.04 in Rain Light Rain
6:23 PM 78.8 °F - 69.8 °F 74% 30.00 in 10.0 mi NE 18.4 mph 25.3 mph 0.04 in Rain Light Rain
6:53 PM 78.1 °F - 70.0 °F 76% 30.01 in 10.0 mi NE 18.4 mph 28.8 mph 0.04 in   Overcast
7:34 PM 78.8 °F - 69.8 °F 74% 30.03 in 10.0 mi ENE 18.4 mph 26.5 mph N/A   Overcast
7:40 PM 77.0 °F - 69.8 °F 78% 30.03 in 2.0 mi ENE 26.5 mph 35.7 mph 0.00 in Rain Heavy Rain
7:47 PM 75.2 °F - 71.6 °F 89% 30.03 in 3.0 mi ENE 16.1 mph 35.7 mph 0.04 in Rain Light Rain
7:53 PM 75.9 °F - 71.1 °F 85% 30.03 in 4.0 mi ENE 15.0 mph 27.6 mph 0.07 in Rain Light Rain
8:29 PM 77.0 °F - 71.6 °F 83% 30.04 in 2.0 mi East 18.4 mph 24.2 mph 0.03 in Rain Heavy Rain
8:32 PM 75.2 °F - 71.6 °F 89% 30.04 in 1.2 mi ENE 20.7 mph 26.5 mph 0.03 in Rain Heavy Rain
8:43 PM 75.2 °F - 71.6 °F 89% 30.04 in 4.0 mi ENE 18.4 mph 39.1 mph 0.21 in Rain Rain
8:53 PM 75.9 °F - 71.1 °F 85% 30.04 in 10.0 mi NE 16.1 mph 25.3 mph 0.23 in Rain Light Rain
9:53 PM 78.1 °F - 69.1 °F 74% 30.04 in 10.0 mi NE 15.0 mph 24.2 mph 0.00 in   Mostly Cloudy
10:27 PM 78.8 °F - 68.0 °F 69% 30.05 in 10.0 mi NE 17.3 mph 24.2 mph N/A   Overcast
10:53 PM 78.1 °F - 68.0 °F 71% 30.05 in 10.0 mi NE 15.0 mph 24.2 mph N/A   Overcast
11:53 PM 78.1 °F - 69.1 °F 74% 30.04 in 10.0 mi NE 12.7 mph 25.3 mph N/A   Mostly Cloudy